Dew Point Data


Current

Temp 80.0 F. Dew Point 70.0 F.


Dew Point Comfort Scale

dewpoints

Date, Time Temperature Dew Point
Fri Jun 18 00:08:05 2021 77.0 F. 70.0 F.
Fri Jun 18 01:08:05 2021 77.0 F. 70.0 F.
Fri Jun 18 02:08:04 2021 77.0 F. 71.1 F.
Fri Jun 18 03:08:04 2021 79.0 F. 71.1 F.
Fri Jun 18 04:08:05 2021 79.0 F. 71.1 F.
Fri Jun 18 05:08:05 2021 78.0 F. 70.0 F.
Fri Jun 18 06:08:04 2021 76.0 F. 69.1 F.
Fri Jun 18 07:08:05 2021 78.0 F. 69.1 F.
Fri Jun 18 08:08:04 2021 80.0 F. 70.0 F.
Fri Jun 18 09:08:05 2021 80.0 F. 70.0 F.
Fri Jun 18 10:08:05 2021 82.0 F. 72.0 F.
Fri Jun 18 11:08:05 2021 85.0 F. 73.0 F.
Fri Jun 18 12:08:04 2021 87.0 F. 73.9 F.
Fri Jun 18 13:08:04 2021 91.0 F. 73.9 F.
Fri Jun 18 14:08:04 2021 92.0 F. 73.0 F.
Fri Jun 18 15:08:04 2021 92.0 F. 73.0 F.
Fri Jun 18 16:08:05 2021 93.0 F. 73.9 F.
Fri Jun 18 17:08:05 2021 93.0 F. 73.0 F.
Fri Jun 18 18:08:05 2021 92.0 F. 72.0 F.
Fri Jun 18 19:08:05 2021 91.0 F. 73.0 F.
Fri Jun 18 20:08:05 2021 90.0 F. 73.0 F.
Fri Jun 18 21:08:05 2021 87.0 F. 72.0 F.
Fri Jun 18 22:08:05 2021 87.0 F. 72.0 F.
Fri Jun 18 23:08:04 2021 80.0 F. 71.1 F.
Sat Jun 19 00:08:05 2021 80.0 F. 68.0 F.
Sat Jun 19 01:08:04 2021 80.0 F. 68.0 F.
Sat Jun 19 02:08:05 2021 78.0 F. 66.9 F.
Sat Jun 19 03:08:05 2021 79.0 F. 64.9 F.
Sat Jun 19 04:08:05 2021 78.0 F. 64.0 F.
Sat Jun 19 05:08:04 2021 77.0 F. 63.0 F.
Sat Jun 19 06:08:06 2021 73.0 F. 64.0 F.
Sat Jun 19 07:08:05 2021 75.0 F. 64.9 F.
Sat Jun 19 08:08:04 2021 76.0 F. 66.0 F.
Sat Jun 19 09:08:04 2021 78.0 F. 66.0 F.
Sat Jun 19 10:08:05 2021 80.0 F. 66.9 F.
Sat Jun 19 11:08:05 2021 83.0 F. 68.0 F.
Sat Jun 19 12:08:04 2021 83.0 F. 68.0 F.
Sat Jun 19 13:08:05 2021 87.0 F. 68.0 F.
Sat Jun 19 14:08:04 2021 87.0 F. 68.0 F.
Sat Jun 19 15:08:04 2021 88.0 F. 69.1 F.
Sat Jun 19 16:08:05 2021 88.0 F. 69.1 F.
Sat Jun 19 17:08:04 2021 89.0 F. 66.9 F.
Sat Jun 19 18:08:05 2021 87.0 F. 66.9 F.
Sat Jun 19 19:08:05 2021 87.0 F. 66.9 F.
Sat Jun 19 20:08:04 2021 84.0 F. 69.1 F.
Sat Jun 19 21:08:05 2021 84.0 F. 69.1 F.
Sat Jun 19 22:08:05 2021 76.0 F. 71.1 F.
Sat Jun 19 23:08:05 2021 75.0 F. 70.0 F.
Sun Jun 20 00:08:05 2021 75.0 F. 70.0 F.
Sun Jun 20 01:08:05 2021 76.0 F. 68.0 F.
Sun Jun 20 02:08:05 2021 75.0 F. 68.0 F.
Sun Jun 20 03:08:04 2021 75.0 F. 69.1 F.
Sun Jun 20 04:08:04 2021 75.0 F. 69.1 F.
Sun Jun 20 05:08:05 2021 74.0 F. 70.0 F.
Sun Jun 20 06:08:05 2021 74.0 F. 70.0 F.
Sun Jun 20 07:08:05 2021 74.0 F. 70.0 F.
Sun Jun 20 08:08:05 2021 77.0 F. 71.1 F.
Sun Jun 20 09:08:04 2021 81.0 F. 72.0 F.
Sun Jun 20 10:08:04 2021 81.0 F. 72.0 F.
Sun Jun 20 11:08:05 2021 83.0 F. 71.1 F.
Sun Jun 20 12:08:04 2021 86.0 F. 72.0 F.
Sun Jun 20 13:08:05 2021 88.0 F. 72.0 F.
Sun Jun 20 14:08:04 2021 89.0 F. 70.0 F.
Sun Jun 20 15:08:05 2021 89.0 F. 70.0 F.
Sun Jun 20 16:08:05 2021 89.0 F. 68.0 F.
Sun Jun 20 17:08:04 2021 90.0 F. 69.1 F.
Sun Jun 20 18:08:05 2021 90.0 F. 69.1 F.
Sun Jun 20 19:08:05 2021 89.0 F. 69.1 F.
Sun Jun 20 20:08:05 2021 87.0 F. 70.0 F.
Sun Jun 20 21:08:05 2021 81.0 F. 70.0 F.
Sun Jun 20 22:08:04 2021 80.0 F. 69.1 F.
Sun Jun 20 23:08:05 2021 80.0 F. 69.1 F.
Mon Jun 21 00:08:05 2021 80.0 F. 69.1 F.
Mon Jun 21 01:08:05 2021 82.0 F. 69.1 F.
Mon Jun 21 02:08:04 2021 82.0 F. 70.0 F.
Mon Jun 21 03:08:05 2021 73.0 F. 64.9 F.
Mon Jun 21 04:08:05 2021 71.0 F. 71.1 F.
Mon Jun 21 05:08:05 2021 71.0 F. 71.1 F.
Mon Jun 21 06:08:05 2021 72.0 F. 69.1 F.
Mon Jun 21 07:08:04 2021 73.0 F. 71.1 F.
Mon Jun 21 08:08:06 2021 74.0 F. 71.1 F.
Mon Jun 21 09:08:04 2021 74.0 F. 69.1 F.
Mon Jun 21 10:08:05 2021 74.0 F. 69.1 F.
Mon Jun 21 11:08:05 2021 69.0 F. 66.0 F.
Mon Jun 21 12:08:05 2021 73.0 F. 64.0 F.
Mon Jun 21 13:08:04 2021 73.0 F. 62.1 F.
Mon Jun 21 14:08:05 2021 73.0 F. 62.1 F.
Mon Jun 21 15:08:05 2021 71.0 F. 60.1 F.
Mon Jun 21 16:08:04 2021 71.0 F. 60.1 F.
Mon Jun 21 17:08:05 2021 71.0 F. 60.1 F.
Mon Jun 21 18:08:04 2021 72.0 F. 57.9 F.
Mon Jun 21 19:08:05 2021 72.0 F. 57.9 F.
Mon Jun 21 20:08:05 2021 71.0 F. 55.0 F.
Mon Jun 21 21:08:04 2021 66.0 F. 57.0 F.
Mon Jun 21 22:08:05 2021 66.0 F. 57.0 F.
Mon Jun 21 23:08:04 2021 64.0 F. 55.0 F.
Tue Jun 22 00:08:04 2021 61.0 F. 55.0 F.
Tue Jun 22 01:08:04 2021 59.0 F. 55.0 F.
Tue Jun 22 02:08:04 2021 56.0 F. 53.1 F.
Tue Jun 22 03:08:04 2021 56.0 F. 53.1 F.
Tue Jun 22 04:08:05 2021 55.0 F. 51.1 F.
Tue Jun 22 05:08:05 2021 54.0 F. 51.1 F.
Tue Jun 22 06:08:04 2021 54.0 F. 50.0 F.
Tue Jun 22 07:08:05 2021 53.0 F. 50.0 F.
Tue Jun 22 08:08:05 2021 59.0 F. 52.0 F.
Tue Jun 22 09:08:05 2021 59.0 F. 52.0 F.
Tue Jun 22 10:08:04 2021 67.0 F. 50.0 F.
Tue Jun 22 11:08:04 2021 69.0 F. 46.0 F.
Tue Jun 22 12:08:05 2021 71.0 F. 43.0 F.
Tue Jun 22 13:08:05 2021 73.0 F. 46.0 F.
Tue Jun 22 14:08:05 2021 74.0 F. 44.1 F.
Tue Jun 22 15:08:05 2021 76.0 F. 45.0 F.
Tue Jun 22 16:08:05 2021 76.0 F. 45.0 F.
Tue Jun 22 17:08:05 2021 77.0 F. 46.0 F.
Tue Jun 22 18:08:05 2021 77.0 F. 45.0 F.
Tue Jun 22 19:08:05 2021 74.0 F. 46.9 F.
Tue Jun 22 20:08:05 2021 72.0 F. 50.0 F.
Tue Jun 22 21:08:05 2021 72.0 F. 50.0 F.
Tue Jun 22 22:08:05 2021 65.0 F. 55.9 F.
Tue Jun 22 23:08:05 2021 59.0 F. 55.0 F.
Wed Jun 23 00:08:04 2021 59.0 F. 54.0 F.
Wed Jun 23 01:08:05 2021 58.0 F. 55.0 F.
Wed Jun 23 02:08:04 2021 58.0 F. 55.0 F.
Wed Jun 23 03:08:05 2021 58.0 F. 53.1 F.
Wed Jun 23 04:08:05 2021 57.0 F. 52.0 F.
Wed Jun 23 05:08:04 2021 55.0 F. 53.1 F.
Wed Jun 23 06:08:05 2021 55.0 F. 53.1 F.
Wed Jun 23 07:08:05 2021 55.0 F. 53.1 F.
Wed Jun 23 08:08:05 2021 65.0 F. 57.0 F.
Wed Jun 23 09:08:04 2021 71.0 F. 55.0 F.
Wed Jun 23 10:08:05 2021 71.0 F. 55.0 F.
Wed Jun 23 11:08:05 2021 74.0 F. 55.0 F.
Wed Jun 23 12:08:05 2021 76.0 F. 55.9 F.
Wed Jun 23 13:08:05 2021 78.0 F. 55.9 F.
Wed Jun 23 14:08:04 2021 78.0 F. 55.9 F.
Wed Jun 23 15:08:05 2021 80.0 F. 54.0 F.
Wed Jun 23 16:08:05 2021 80.0 F. 54.0 F.
Wed Jun 23 17:08:05 2021 81.0 F. 55.9 F.
Wed Jun 23 18:08:05 2021 80.0 F. 55.0 F.
Wed Jun 23 19:08:04 2021 80.0 F. 55.0 F.
Wed Jun 23 20:08:05 2021 76.0 F. 55.9 F.
Wed Jun 23 21:08:04 2021 76.0 F. 55.9 F.
Wed Jun 23 22:08:05 2021 67.0 F. 59.0 F.
Wed Jun 23 23:08:05 2021 67.0 F. 57.9 F.
Thu Jun 24 00:08:05 2021 66.0 F. 57.9 F.
Thu Jun 24 01:08:06 2021 66.0 F. 57.9 F.
Thu Jun 24 02:08:04 2021 65.0 F. 57.9 F.
Thu Jun 24 03:08:05 2021 67.0 F. 57.9 F.
Thu Jun 24 04:08:05 2021 67.0 F. 59.0 F.
Thu Jun 24 05:08:05 2021 66.0 F. 59.0 F.
Thu Jun 24 06:08:05 2021 66.0 F. 59.0 F.
Thu Jun 24 07:08:05 2021 70.0 F. 61.0 F.
Thu Jun 24 08:08:05 2021 70.0 F. 61.0 F.
Thu Jun 24 09:08:04 2021 73.0 F. 63.0 F.
Thu Jun 24 10:08:05 2021 76.0 F. 64.0 F.
Thu Jun 24 11:08:04 2021 78.0 F. 66.0 F.
Thu Jun 24 12:08:05 2021 81.0 F. 69.1 F.
Thu Jun 24 13:08:04 2021 83.0 F. 70.0 F.
Thu Jun 24 14:08:05 2021 83.0 F. 70.0 F.
Thu Jun 24 15:08:05 2021 83.0 F. 70.0 F.
Thu Jun 24 16:08:05 2021 82.0 F. 70.0 F.
Thu Jun 24 17:08:05 2021 83.0 F. 70.0 F.
Thu Jun 24 18:08:04 2021 82.0 F. 70.0 F.
Thu Jun 24 19:08:05 2021 81.0 F. 70.0 F.
Thu Jun 24 20:08:04 2021 81.0 F. 70.0 F.
Thu Jun 24 21:08:05 2021 80.0 F. 70.0 F.
Thu Jun 24 22:08:05 2021 79.0 F. 70.0 F.
Thu Jun 24 23:08:05 2021 80.0 F. 70.0 F.
Fri Jun 25 00:08:05 2021 80.0 F. 70.0 F.
Fri Jun 25 01:08:04 2021 80.0 F. 69.1 F.
Fri Jun 25 02:08:05 2021 80.0 F. 69.1 F.
Fri Jun 25 03:08:04 2021 80.0 F. 69.1 F.
Fri Jun 25 04:08:04 2021 80.0 F. 70.0 F.